Flag for U.S.A. Weather past 2 weeks in Philadelphia, Pennsylvania, U.S.A.

Now
73 °F

Clear.


Feels Like: 75 °F
Forecast: 70 / 90 °F
Wind: 8 mph from South

Location: Philadelphia International Airport

Current Time: Aug 3, 2015 at 4:47:25 AM

Latest Report: Aug 3, 2015 at 3:54 AM


Visibility: 10 mi

Pressure: 29.87 "Hg

Humidity: 74%

Dew point: 64 °F

Location of PhiladelphiaLocation

Historic Weather in Philadelphia — Graph

°F

Philadelphia temperature yesterday

Maximum temperature yesterday: 89 °F (at 2:54 PM)
Minimum temperature yesterday: 71 °F (at 5:54 AM)
Average temperature yesterday: 81 °F

Past Weeks' High & Low Weather Summary

 TemperatureHumidityPressure
High95 °F (Jul 19, 3:54 PM)91% (Jul 27, 6:54 AM)30.03 "Hg (Jul 27, 6:54 AM)
Low69 °F (Jul 23, 5:54 AM)26% (Aug 2, 4:54 PM)29.59 "Hg (Jul 21, 5:54 PM)
Average81 °F58%29.89 "Hg
* Reported Jul 19 2:54 AM — Aug 3 2:54 AM, Philadelphia, Weather by CustomWeather, © 2015

Note: Actual official high and low records may vary slightly from our data, if they occured in-between our weather recording intervals... More about our weather records

Advertising

Philadelphia weather history for previous 24 hours

 ConditionsComfort  
Time TempWeatherWind HumidityBarometerVisibility
2:54 AM
Mon, Aug 3
75 °FClear.6 mph69%29.87 "Hg10 mi
1:54 AM75 °FClear.7 mph69%29.88 "Hg10 mi
12:54 AM77 °FPassing clouds.7 mph62%29.89 "Hg10 mi
11:54 PM
Sun, Aug 2
77 °FPassing clouds.9 mph62%29.89 "Hg10 mi
10:54 PM78 °FPassing clouds.8 mph58%29.88 "Hg10 mi
9:54 PM82 °FPassing clouds.9 mph44%29.90 "Hg10 mi
8:54 PM83 °FPassing clouds.9 mph40%29.90 "Hg10 mi
7:54 PM85 °FPartly sunny.8 mph36%29.89 "Hg10 mi
6:54 PM88 °FPartly sunny.10 mph29%29.88 "Hg10 mi
5:54 PM89 °FScattered clouds.10 mph28%29.90 "Hg10 mi
4:54 PM89 °FBroken clouds.10 mph26%29.90 "Hg10 mi
3:54 PM89 °FBroken clouds.12 mph29%29.91 "Hg10 mi
2:54 PM89 °FScattered clouds.9 mph27%29.91 "Hg10 mi
1:54 PM88 °FScattered clouds.9 mph28%29.92 "Hg10 mi
12:54 PM87 °FBroken clouds.7 mph30%29.94 "Hg10 mi
11:54 AM85 °FBroken clouds.7 mph36%29.95 "Hg10 mi
10:54 AM84 °FBroken clouds.3 mph40%29.95 "Hg10 mi
9:54 AM83 °FScattered clouds.No wind44%29.94 "Hg10 mi
8:54 AM78 °FScattered clouds.3 mph52%29.93 "Hg10 mi
7:54 AM75 °FPassing clouds.3 mph55%29.93 "Hg10 mi
6:54 AM72 °FPassing clouds.No wind59%29.91 "Hg10 mi
5:54 AM71 °FPassing clouds.No wind61%29.90 "Hg10 mi
4:54 AM72 °FPassing clouds.7 mph61%29.89 "Hg10 mi
Weather by CustomWeather, © 2015

See weather overviewHow to use our weather pages